Voltar ao catálogo

STARLINK-5772

AtivoComunicaçõesVLEO
NORAD 56024·PAYLOAD·🇺🇸 United States

Lançado Mar 24, 2023 de Cape Canaveral Space Force Station

Loading…

Próximas Passagens (próximas 24 horas)

TLE

AtualizadoSource: CelesTrak SupGP

Época: Sep 15, 2026, 01:28 UTC

1 56024C 23042AQ  26258.06159722 -.00023603  00000+0 -85485-3 0  2589
2 56024  43.0035  55.5255 0001398 270.4876 321.6309 15.27592697    14

Acompanhe STARLINK-5772 em tempo real com AllMySat

Download on the App Store